Flag for Moldova Weather past 2 weeks in Chisinau, Moldova

Now
70 °F

Passing clouds.


Feels Like: 70 °F
Forecast: 61 / 90 °F
Wind: 3 mph from East

Location: Chisinau International Airport

Current Time: Jul 30, 2014 at 9:06:07 AM

Latest Report: Jul 30, 2014 at 8:30 AM


Visibility: N/A

Pressure: 29.95 "Hg

Humidity: 64%

Dew point: 57 °F

Location of ChisinauLocation

Historic Weather in Chisinau — Graph

°F

Chisinau temperature yesterday

Maximum temperature yesterday: 90 °F (at 4:30 PM)
Minimum temperature yesterday: 55 °F (at 6:00 AM)
Average temperature yesterday: 75 °F

Past Weeks' High & Low Weather Summary

 TemperatureHumidityPressure
High91 °F (Jul 28, 3:00 PM)88% (Jul 18, 11:30 PM)30.07 "Hg (Jul 18, 11:30 PM)
Low55 °F (Jul 29, 6:00 AM)20% (Jul 29, 12:30 PM)29.77 "Hg (Jul 21, 4:30 PM)
Average74 °F60%29.90 "Hg
* Reported Jul 15 8:00 AM — Jul 30 8:00 AM, Chisinau, Weather by CustomWeather, © 2014

Note: Actual official high and low records may vary slightly from our data, if they occured in-between our weather recording intervals... More about our weather records

Advertising

Chisinau weather history for previous 24 hours

 ConditionsComfort  
Time TempWeatherWind HumidityBarometerVisibility
8:00 AM
Jul 30
68 °FSunny.2 mph64%29.95 "Hg10 mi
7:30 AM63 °FPassing clouds.3 mph83%29.92 "HgN/A
7:00 AM61 °FSunny.No wind83%29.92 "Hg10 mi
6:30 AM57 °FClear.2 mph88%29.92 "Hg10 mi
6:00 AM57 °FClear.1 mph88%29.92 "Hg10 mi
5:30 AM59 °FClear.2 mph82%29.92 "Hg10 mi
5:00 AM61 °FClear.3 mph77%29.92 "Hg10 mi
4:30 AM59 °FClear.3 mph82%29.92 "Hg10 mi
4:00 AM59 °FClear.3 mph82%29.92 "Hg10 mi
3:30 AM61 °FClear.1 mph77%29.92 "Hg10 mi
3:00 AM61 °FClear.2 mph83%29.92 "Hg10 mi
2:30 AM61 °FClear.2 mph77%29.92 "Hg10 mi
2:00 AM64 °FClear.No wind68%29.92 "Hg10 mi
1:30 AM64 °FClear.No wind68%29.89 "Hg10 mi
1:00 AM68 °FClear.No wind60%29.89 "Hg10 mi
12:30 AM70 °FClear.No wind53%29.89 "Hg10 mi
12:00 AM72 °FClear.3 mph50%29.89 "Hg10 mi
11:30 PM
Jul 29
73 °FClear.3 mph44%29.89 "Hg10 mi
11:00 PM75 °FClear.No wind41%29.89 "Hg10 mi
10:30 PM75 °FClear.5 mph41%29.89 "Hg10 mi
10:00 PM73 °FClear.6 mph44%29.89 "Hg10 mi
9:30 PM75 °FSunny.7 mph41%29.89 "Hg10 mi
9:00 PM79 °FSunny.6 mph34%29.89 "Hg10 mi
8:30 PM81 °FSunny.5 mph32%29.89 "Hg10 mi
8:00 PM84 °FSunny.7 mph29%29.89 "Hg10 mi
7:30 PM86 °FSunny.9 mph25%29.89 "Hg10 mi
7:00 PM86 °FPassing clouds.8 mph25%29.89 "HgN/A
6:30 PM86 °FPassing clouds.9 mph27%29.89 "HgN/A
6:00 PM86 °FPassing clouds.9 mph27%29.89 "HgN/A
5:30 PM86 °FPassing clouds.9 mph29%29.89 "HgN/A
5:00 PM88 °FPassing clouds.10 mph22%29.89 "HgN/A
4:30 PM90 °FPassing clouds.9 mph22%29.89 "HgN/A
4:00 PM88 °FPassing clouds.8 mph24%29.89 "HgN/A
3:30 PM88 °FPassing clouds.8 mph22%29.92 "HgN/A
3:00 PM88 °FPassing clouds.10 mph21%29.92 "HgN/A
2:30 PM86 °FSunny.13 mph24%29.92 "Hg10 mi
2:00 PM88 °FPassing clouds.9 mph21%29.92 "HgN/A
1:30 PM86 °FPassing clouds.12 mph20%29.95 "HgN/A
1:00 PM86 °FPassing clouds.12 mph20%29.95 "HgN/A
12:30 PM86 °FPassing clouds.12 mph20%29.95 "HgN/A
12:00 PM84 °FPassing clouds.12 mph22%29.95 "HgN/A
11:30 AM84 °FSunny.13 mph25%29.95 "Hg10 mi
11:00 AM82 °FSunny.10 mph30%29.95 "Hg10 mi
10:30 AM81 °FPassing clouds.9 mph32%29.95 "HgN/A
10:00 AM79 °FPassing clouds.8 mph32%29.95 "HgN/A
9:30 AM75 °FPassing clouds.9 mph44%29.95 "HgN/A
9:00 AM73 °FPassing clouds.5 mph53%29.98 "HgN/A
Weather by CustomWeather, © 2014

See weather overviewHow to use our weather pages